This demonstration page uses our WeatherBlox Daily Observations layout. Learn more.

Left ArrowRight Arrow

Hourly Observations for December 26, 2021

Temp ( °F °C ) Dew Point ( °F °C ) Humidity (%) Winds ( mph kmh ) Pressure ( in mb ) Visibility ( mi km ) Precip ( " mm )
12:56 am 00:56 Clear 26 -3.3 19 -7.2 75 75 Calm 29.90 1013 10 16 0.00 0.00
1:56 am 01:56 Clear 23 -5 16 -8.9 74 74 ESE 3 6 29.88 1012 10 16 0.00 0.00
2:56 am 02:56 Clear 22 -5.6 17 -8.3 82 82 E 5 7 29.88 1012 10 16 0.00 0.00
3:56 am 03:56 Clear 22 -5.6 17 -8.3 82 82 NE 9 15 29.86 1011 10 16 0.00 0.00
4:56 am 04:56 Cloudy 27 -2.8 22 -5.6 81 81 ENE 9 15 29.83 1010 10 16 0.00 0.00
5:56 am 05:56 Clear 25 -3.9 22 -5.6 88 88 NE 8 13 29.82 1010 10 16 0.00 0.00
6:56 am 06:56 Clear 23 -5 21 -6.1 92 92 E 10 17 29.81 1010 10 16 0.00 0.00
7:56 am 07:56 Clear 23 -5 21 -6.1 92 92 E 12 19 29.77 1008 10 16 0.00 0.00
8:56 am 08:56 Sunny 26 -3.3 24 -4.4 92 92 E 13 20 29.72 1006 10 16 0.00 0.00
9:56 am 09:56 Sunny 32 0 30 -1.1 92 92 ESE 14 22 29.67 1005 10 16 0.00 0.00
10:28 am 10:28 Mostly Sunny 37 3 36 2 93 93 ESE 15 24 29.69 1006 10 16 0.00 0.00
10:46 am 10:46 Mostly Cloudy 39 4 37 3 93 93 SE 15 24 29.66 1005 10 16 0.00 0.00
10:56 am 10:56 Mostly Cloudy 41 5 36 2.2 82 82 SE 16 26 29.62 1003 10 16 0.00 0.00
11:37 am 11:37 Mostly Cloudy 46 8 37 3 71 71 SSE 23 37 29.58 1002 10 16 0.00 0.00
11:56 am 11:56 Mostly Cloudy 45 7.2 38 3.3 77 77 SSE 21 33 29.56 1001 10 16 0.00 0.00
12:10 pm 12:10 Partly Cloudy 46 8 37 3 71 71 SSE 22 35 29.54 1000 10 16 0.00 0.00
12:56 pm 12:56 Sunny 47 8.3 38 3.3 71 71 SSE 13 20 29.51 999 10 16 0.00 0.00
1:56 pm 13:56 Sunny 50 10 38 3.3 63 63 S 15 24 29.45 997 10 16 0.00 0.00
2:56 pm 14:56 Sunny 52 11.1 37 2.8 57 57 SSW 14 22 29.43 997 10 16 0.00 0.00
3:56 pm 15:56 Sunny 51 10.6 37 2.8 59 59 S 7 11 29.42 996 10 16 0.00 0.00
4:56 pm 16:56 Sunny 49 9.4 36 2.2 61 61 SSW 3 6 29.43 997 10 16 0.00 0.00
5:56 pm 17:56 Clear 43 6.1 34 1.1 71 71 Calm 29.45 997 10 16 0.00 0.00
6:56 pm 18:56 Clear 39 3.9 33 0.6 79 79 NNW 3 6 29.50 999 10 16 0.00 0.00
7:56 pm 19:56 Clear 38 3.3 33 0.6 83 83 NNW 9 15 29.49 999 10 16 0.00 0.00
8:56 pm 20:56 Clear 37 2.8 32 0 82 82 WNW 8 13 29.54 1000 10 16 0.00 0.00
9:56 pm 21:56 Clear 36 2.2 32 0 86 86 NW 13 20 29.63 1003 10 16 0.00 0.00
10:56 pm 22:56 Clear 35 1.7 30 -1.1 82 82 NW 9 15 29.65 1004 10 16 0.00 0.00
11:56 pm 23:56 Clear 38 3.3 23 -5 55 55 NW 14 22 29.65 1004 10 16 0.00 0.00

Powered by AerisWeather